Location: Chalais
(46.9714°N, 0.0875°E)
Time: 15:18:27
(UTC+00:00)

Daily predictions for brighter satellites

Satellite Brightness Start Highest point End
(mag) Time Altitude Azimuth Time Altitude Azimuth Time Altitude Azimuth
Nadezhda 1 Rocket 4.2 20:26:23 10° N 20:32:48 69° E 20:39:09 10° SSE
Atlas Centaur 2 3.9 20:29:56 10° SSW 20:33:33 17° S 20:37:39 10° SE
MetOp-B 4.3 20:29:17 10° SSE 20:34:35 65° ENE 20:39:54 10° N
Terra 3.6 20:32:57 10° ESE 20:36:17 19° ENE 20:39:37 10° NNE
Cosmos 2219 Rocket 3.4 20:32:59 10° SSE 20:37:06 21° E 20:41:13 10° NE
Meteor 2-1 Rocket 4.5 20:32:34 10° NNW 20:38:24 83° W 20:44:18 10° S
Cosmos 2360 Rocket 2.3 20:33:07 10° S 20:38:38 59° ESE 20:44:13 10° NNE
IGS 5A 3.9 20:36:15 10° SE 20:40:14 47° ENE 20:44:15 10° N
Cosmos 2333 Rocket 3.2 20:42:02 10° SSE 20:46:45 28° ESE 20:51:32 10° NE
ATLAS 2AS CENTAUR R/B 4.4 20:42:49 10° NW 20:49:32 30° NNE 20:55:48 10° E
Cosmos 1315 Rocket 4.5 20:47:46 10° NNE 20:50:57 21° ENE 20:54:08 10° ESE
Resurs 01 Rocket 2.3 20:47:42 10° S 20:52:02 55° W 20:56:23 10° NNW
Cosmos 1818 3.5 20:48:21 10° SSW 20:53:43 72° ESE 20:59:10 10° NE
CZ-2C R/B 3.9 20:49:14 10° N 20:54:22 45° WNW 20:59:23 10° SW
Cosmos-2242 3.2 20:50:25 10° N 20:54:43 59° ENE 20:59:01 10° SSE
SL-16 R/B 3.3 20:52:06 10° SW 20:57:36 50° WNW 21:03:08 10° NNE
Cosmos 2221 4.4 20:56:26 10° NNE 20:59:21 17° ENE 21:02:15 10° ESE
ERS-1 Rocket 3.4 20:56:51 11° SE 21:01:34 48° ENE 21:06:25 10° N
GEOS 3 Rocket 3.7 20:59:13 10° NE 21:04:34 62° SE 21:09:54 10° SSW
Cosmos 2278 Rocket 3.6 21:03:05 10° N 21:07:57 28° NE 21:12:47 10° ESE
USA 215 3.5 21:01:53 10° ENE 21:08:08 45° SE 21:14:20 10° SSW
ATLAS 5 CENTAUR R/B 1.4 21:06:16 10° SW 21:10:24 83° SE 21:15:04 10° NE
Meteor 1-11 4.5 21:06:13 10° S 21:11:38 52° E 21:17:08 10° NNE
USA 245 3.3 21:08:35 10° S 21:11:46 73° W 21:15:54 10° NNW
Cosmos 1844 Rocket 2.8 21:07:33 10° NNW 21:13:08 75° WSW 21:18:16 12° SSE
Cosmos 1400 Rocket 2.8 21:10:03 10° NNW 21:14:04 86° WSW 21:17:41 12° S
Cosmos 1758 Rocket 3.8 21:10:11 10° SSW 21:14:41 79° W 21:19:12 10° N
Meteor 2-10 Rocket 4.4 21:12:13 10° NNW 21:17:06 46° W 21:22:06 10° SSW
SPOT 5 3.1 21:13:56 14° SSE 21:18:15 58° ENE 21:22:58 10° N
Lacrosse 5 rocket 4.0 21:15:31 10° WNW 21:18:52 22° NNW 21:22:06 10° NE
Spot 2 Rocket 3.9 21:17:04 10° S 21:22:06 64° WSW 21:27:11 10° NNW
USA 81 4.2 21:19:52 12° SSE 21:24:39 56° E 21:29:49 10° NNE
Landsat 7 4.2 21:21:55 10° S 21:26:37 60° W 21:31:21 10° NNW
BREEZE M DEB (TANK) 1.8 21:24:08 10° WNW 21:26:45 53° SSW 21:27:39 27° SE
Cosmos 2181 Rocket 4.1 21:22:36 10° N 21:28:59 72° E 21:34:15 15° SSE
SPOT 1/Viking Rocket 3.9 21:31:53 11° S 21:36:42 62° WSW 21:41:51 10° NNW
Cosmos 1953 Rocket 3.6 21:33:28 10° S 21:37:47 82° W 21:42:09 10° N
USA 267 3.6 21:34:35 10° ESE 21:41:03 63° NNE 21:47:31 10° NW
SAR-Lupe-2 4.1 21:40:29 10° N 21:44:02 60° WNW 21:47:34 10° SSW
Cosmos 2322 Rocket 4.3 21:40:20 10° WSW 21:45:09 29° NW 21:50:01 10° N
Cosmos 2084 3.6 21:40:44 10° NW 21:45:13 75° NE 21:48:05 22° SE
Cosmos 1842 Rocket 3.8 21:42:14 10° N 21:46:31 55° ENE 21:49:02 23° SSE
Cosmos 1455 4.5 21:44:21 10° NW 21:47:16 21° W 21:50:11 10° SW
MTI 4.4 21:49:31 10° NNE 21:52:25 36° E 21:53:10 31° SE
ATLAS CENTAUR R/B 1.0 21:53:01 10° NW 21:56:44 84° SW 21:58:26 30° SSE
Cosmos 1825 4.2 21:58:09 14° E 21:58:48 14° E 22:00:52 10° NE
Cosmos 1980 4.3 21:56:55 22° SSE 21:59:53 37° ESE 22:05:01 10° NE
COSMOS 2428 2.7 21:58:59 10° SSW 22:04:39 89° SE 22:10:23 10° NNE
Cosmos 1869 3.3 22:03:31 10° N 22:07:30 74° E 22:09:22 30° SSE
Cosmos 2322 4.4 22:03:01 10° SW 22:08:39 56° WNW 22:14:17 10° NNE
NOSS 0 Rocket 4.0 22:07:31 17° S 22:12:06 56° ESE 22:18:08 10° NE
Terra 2.1 22:10:34 22° S 22:13:35 61° W 22:18:19 10° NNW
NOSS 3-4 (A) 4.2 22:06:53 10° NW 22:13:42 61° NE 22:19:46 16° ESE
NOSS 3-4 (C) 4.2 22:06:59 10° NW 22:13:49 60° NE 22:19:55 16° ESE
Cosmos 2237 Rocket 2.5 22:14:58 24° S 22:18:05 48° ESE 22:23:32 10° NE
Genesis I 4.1 22:18:36 29° ESE 22:18:37 29° ESE 22:22:02 10° ENE
BREEZE-M DEB 4.3 22:15:58 10° WNW 22:20:02 76° SSW 22:36:29 10° ESE
Cosmos 2219 Rocket 2.6 22:14:59 10° SW 22:20:31 64° WNW 22:26:07 10° NNE
Cosmos 2344 4.0 22:16:02 21° S 22:20:32 40° ESE 22:27:42 10° NE
BREEZE-M R/B 4.5 22:11:01 10° WNW 22:20:54 49° SW 22:23:36 27° SSE
Atlas Centaur 2 4.1 22:17:33 10° SW 22:21:21 17° S 22:21:21 17° S
Cosmos 1538 Rocket 4.5 22:16:28 10° SW 22:21:46 62° WNW 22:27:04 10° NNE
Elektron 1 4.5 22:21:21 38° SSE 22:22:04 45° ESE 22:26:37 10° NE
Cosmos 2360 Rocket 4.3 22:18:15 10° WSW 22:23:02 28° NW 22:27:52 10° N
NOSS 3-3 (A) 4.1 22:17:17 10° SW 22:23:10 78° NW 22:29:52 10° NE
NOSS 3-3 (C) 4.1 22:17:22 10° SW 22:23:16 79° NW 22:30:00 10° NE
Cosmos 1315 Rocket 4.1 22:23:51 10° NNW 22:27:37 36° W 22:29:55 20° SSW
DELTA 2 R/B (1) 4.2 22:23:07 10° SW 22:28:01 32° SSE 22:30:03 25° SE
Cosmos 2333 Rocket 3.0 22:25:10 10° SW 22:30:42 52° WNW 22:36:20 10° NNE
Thor Agena Rocket 3.8 22:26:15 10° NNE 22:31:12 49° E 22:33:18 31° SSE
Cosmos 2184 Rocket 4.1 22:27:10 19° SSW 22:31:53 80° W 22:38:13 10° N
Meteor 2-2 Rocket 4.4 22:26:46 10° NNW 22:32:35 72° W 22:35:55 26° S
Cosmos 2221 3.1 22:33:00 10° NNW 22:37:16 52° W 22:39:20 27° SSW
BREEZE-M DEB (TANK) 2.0 22:35:45 10° WNW 22:40:13 63° N 22:41:22 29° E
Iridium 2 3.8 22:37:39 10° N 22:41:28 61° E 22:42:26 44° SE
Cosmos 1371 Rocket 4.2 22:36:27 10° NNW 22:41:41 64° ENE 22:44:15 30° SE
ATLAS 2AS CENTAUR R/B 2.9 22:34:05 10° NW 22:41:46 77° NE 22:46:25 23° SE
Cosmos 1892 2.8 22:41:59 36° SSW 22:43:25 72° W 22:47:13 10° N
EO 1 Del DPAF 3.4 22:40:35 10° NNE 22:44:17 53° E 22:44:59 45° SE
MOS 1-B Rocket 4.5 22:38:32 10° NNE 22:46:13 63° E 22:49:56 28° S
Okean 3 Rocket 4.4 22:47:03 31° ESE 22:48:08 36° E 22:52:12 10° NNE
Aureole 2 Rocket 3.5 22:46:15 10° N 22:48:43 26° ENE 22:48:59 25° ENE
Cosmos 2112 Rocket 4.0 22:48:24 30° S 22:51:06 74° ESE 22:56:29 10° NNE
Cosmos 1606 3.8 22:47:48 10° N 22:51:21 33° ENE 22:52:19 28° ESE
USA 215 3.6 22:44:50 10° NE 22:51:21 69° NNW 22:57:50 10° WSW
Cosmos 2278 Rocket 2.5 22:46:50 10° NW 22:52:24 58° WSW 22:54:59 31° S
Cosmos 2297 4.4 22:48:15 10° NNW 22:53:50 49° ENE 22:57:11 23° ESE
Cosmos 158 Rocket 3.7 22:52:56 31° SSW 22:55:19 85° ESE 23:00:15 10° NNE
ATLAS 5 CENTAUR R/B 4.3 22:52:16 10° WNW 22:55:42 22° NNW 22:59:29 10° NNE
Lacrosse 5 rocket 3.7 22:55:54 10° NW 22:59:09 22° NNE 23:02:15 10° ENE
Cosmos 1943 Rocket 3.7 22:55:17 10° NNW 23:00:15 30° NE 23:04:40 12° ESE
Spot 4 3.8 22:59:07 38° S 23:00:58 82° WSW 23:05:46 10° NNW
SL-16 R/B 2.8 23:00:46 32° SE 23:02:27 40° ESE 23:07:44 10° NE
Cosmos 2058 3.7 23:01:10 25° SW 23:03:11 46° WNW 23:07:12 10° N
Cosmos 1408 2.7 23:03:24 46° SW 23:04:15 65° WNW 23:07:49 10° N
Cosmos 2056 Rocket 3.5 23:00:13 10° NNW 23:05:40 85° ENE 23:07:58 36° SSE
Nadezhda 3 Rocket 4.3 23:04:15 10° NNW 23:10:31 60° W 23:13:54 28° SSW
Cosmos 2154 Rocket 4.3 23:07:50 23° SSW 23:11:48 62° WNW 23:17:59 10° N
Cosmos 2341 Rocket 3.9 23:11:46 32° S 23:14:50 82° E 23:21:05 10° N
Cosmos 1680 Rocket 4.0 23:15:58 20° SW 23:19:33 58° WNW 23:24:49 10° NNE
Meteor 2-3 Rocket 4.3 23:21:02 32° SE 23:23:02 45° E 23:28:26 10° NNE
USA 267 3.5 23:21:24 32° S 23:24:10 51° SW 23:30:33 10° WNW
Cosmos 2151 3.1 23:23:52 43° SSW 23:25:09 72° W 23:29:27 10° N
IRIDIUM 104 4.4 23:23:26 39° SSE 23:25:17 66° E 23:30:29 10° N
Helios 1A 3.7 23:24:53 33° ESE 23:26:09 44° ENE 23:30:07 10° N
Cosmos 1452 Rocket 4.0 23:27:29 10° NNW 23:32:41 55° ENE 23:35:06 30° SE
CZ-4C R/B 4.0 23:26:26 10° NNW 23:32:54 41° NE 23:40:21 10° ESE
BREEZE-M DEB (TANK) 4.3 23:31:00 10° W 23:32:45 15° WSW 23:32:45 15° WSW
SL-8 Rocket 3.9 23:30:59 35° S 23:33:47 85° E 23:39:59 10° N
Cosmos 1825 2.9 23:32:56 36° WSW 23:33:54 45° WNW 23:37:34 10° N
COSMOS 2455 3.4 23:28:21 10° NNW 23:34:18 54° NE 23:38:24 20° ESE
IRIDIUM 114 4.3 23:32:35 41° S 23:34:26 79° E 23:39:40 10° N
Cosmos 1340 2.8 23:34:23 53° ESE 23:34:39 55° E 23:38:21 10° NNE
ALOS 2 2.6 23:35:27 48° SSW 23:36:31 70° WSW 23:40:56 10° NNW
Cosmos 1408 Rocket 3.7 23:35:56 47° SE 23:36:50 58° E 23:41:11 10° NNE
Cosmos 1933 3.2 23:33:28 10° N 23:37:31 83° E 23:38:13 59° SSE
Cosmos 1151 Rocket 2.9 23:34:43 10° N 23:39:05 88° WSW 23:40:03 54° S
Meteor 2-12 Rocket 4.4 23:37:27 36° S 23:40:05 79° E 23:46:15 10° NNE
IRIDIUM 103 4.3 23:41:42 41° S 23:43:35 87° W 23:48:50 10° N
APEX 3.3 23:42:02 10° NNW 23:44:22 44° NNE 23:44:22 44° NNE
Cosmos 44 2.9 23:43:37 48° SSW 23:44:49 88° SE 23:49:16 10° NE
Cosmos 2369 Rocket 3.1 23:39:40 10° NNW 23:45:00 42° NE 23:48:49 18° ESE
Cosmos 1727 Rocket 4.1 23:38:56 10° N 23:45:09 67° E 23:48:04 33° SSE
Cosmos 1500 Rocket 4.4 23:44:49 32° ESE 23:45:43 36° E 23:49:45 10° NNE
SL-4 R/B 3.4 23:48:59 19° NNW 23:48:59 19° NNW 23:49:43 10° NNW
GP-B 3.2 23:43:13 10° N 23:47:39 66° W 23:48:50 45° SSW
Cosmos 371 Rocket 3.2 23:44:06 10° NNW 23:49:00 85° WSW 23:50:25 47° SSE
Dummy Sat-01 4.5 23:50:59 10° N 23:54:48 82° E 23:55:12 69° SSE
Helios 1B rocket 3.7 23:51:18 10° NE 23:54:50 27° E 23:55:23 26° ESE
CREW DRAGON DEMO-1 DEB 3.3 23:54:48 58° NW 23:54:59 59° NNW 23:58:02 10° ENE
